Regional Weather Roundup
Issued by NWS

Home | Current Version | Previous Version | Text Only | Print | Product List | Glossary Off
Versions: 1 2 3 4 5 6 7 8 9 10 11 12 13 14 15 16 17 18 19 20 21 22 23 24 25 26 27 28 29 30 31 32 33 34 35 36 37 38 39 40 41 42 43 44 45 46 47 48 49 50

060
ASUS44 KJAN 271903
RWRMS

MISSISSIPPI HOURLY WEATHER ROUNDUP
NATIONAL WEATHER SERVICE JACKSON MS
200 PM CDT FRI MAR 27 2015

NOTE: "FAIR: INDICATES FEW OR NO CLOUDS BELOW 12,000 FEET WITH NO
SIGNIFICANT WEATHER AND/OR OBSTRUCTIONS TO VISIBILITY.

MSZ001>002-007>008-010>013-018>021-025>028-034>036-272000-
NORTHWEST MISSISSIPPI

CITY           SKY/WX    TMP DP  RH WIND       PRES   REMARKS
CLARKSDALE     PTSUNNY   46  39  76 NW12      30.14S
CLEVELAND      MOCLDY    55  40  58 NW10      30.10F
GREENWOOD      CLOUDY    55  31  39 NW8       30.09F
GREENVILLE     PTSUNNY   55  36  48 N8        30.11S
OLIVE BRANCH   PTSUNNY   45  45 100 NW12      30.10S
OXFORD         CLOUDY    48  32  53 NW13G18   30.10S
TUNICA         MOCLDY    46  37  71 NW9       30.13F
$$

MSZ003>006-009-014>017-022>024-029>033-037>039-272000-
NORTHEAST MISSISSIPPI

CITY           SKY/WX    TMP DP  RH WIND       PRES   REMARKS
COLUMBUS AFB   PTSUNNY   54  30  40 NW18G28   30.03S
CORINTH        DRIZZLE   48  36  61 NW8G18    30.05S
GOLDN TRIANGLE PTSUNNY   54  34  47 NW12      30.03F
STARKVILLE     MOCLDY    54  34  47 N12G21    30.05S
TUPELO         CLOUDY    50  33  52 N14G21    30.06S
$$

MSZ040-058-272000-
CENTRAL MISSISSIPPI

CITY           SKY/WX    TMP DP  RH WIND       PRES   REMARKS
JACKSON INTL   FAIR      60  33  36 N13G20    30.06F
JACKSON HAWKNS FAIR      60  34  37 NW13G20   30.06F
MERIDIAN KEY   FAIR      62  29  28 NW13G21   30.01F
MERIDIAN NAS   MOSUNNY   60  30  32 NW15      30.00F
RAYMOND        FAIR      61  55  82 W10G18    30.05F
VICKSBURG      FAIR      60  36  40 MISG      30.09F
$$

MSZ059>079-272000-
SOUTH MISSISSIPPI

CITY           SKY/WX    TMP DP  RH WIND       PRES   REMARKS
BROOKHAVEN     FAIR      63  39  42 NW10G16   30.06F
HATTIESBURG    FAIR      63  32  31 NW14      30.03F
MCCOMB         FAIR      64  35  34 NW8       30.04F
NATCHEZ        FAIR      61  37  41 W14       30.07F
PINE BELT      FAIR      63 N/A N/A W7        30.03F
$$

MSZ080>082-272000-
COASTAL MISSISSIPPI

CITY           SKY/WX    TMP DP  RH WIND       PRES   REMARKS
BAY ST LOUIS   SUNNY     66  21  18 N12G21    30.01F
BILOXI         FAIR      66  32  28 N13       29.99F
PASCAGOULA     FAIR      67  32  27 NW13G22   29.99F
GULFPORT       FAIR      66  30  26 NW15G25   29.99F
$$



USA.gov is the U.S. government's official web portal to all federal, state and local government web resources and services.